owner,sensor,date,latitude,longitude,vertical_datum,mass_concentration_of_oxygen_in_sea_water,qcFlag 
SCCF RECON,ioos:station:SCCF:11:1,2016-10-01T00:00:00Z,26.4679,-82.0631,1.612,8.34,1111122 
SCCF RECON,ioos:station:SCCF:11:1,2016-10-01T01:00:00Z,26.4679,-82.0631,1.68,8.11,1111122 
SCCF RECON,ioos:station:SCCF:11:1,2016-10-01T02:00:00Z,26.4679,-82.0631,1.84,7.2,1111122 
SCCF RECON,ioos:station:SCCF:11:1,2016-10-01T03:00:00Z,26.4679,-82.0631,2.0,6.56,1111122 
SCCF RECON,ioos:station:SCCF:11:1,2016-10-01T04:00:00Z,26.4679,-82.0631,2.145,6.07,1111122 
SCCF RECON,ioos:station:SCCF:11:1,2016-10-01T05:00:00Z,26.4679,-82.0631,2.2,5.73,1111122 
SCCF RECON,ioos:station:SCCF:11:1,2016-10-01T06:00:00Z,26.4679,-82.0631,2.16,6.2,1111122 
SCCF RECON,ioos:station:SCCF:11:1,2016-10-01T07:00:00Z,26.4679,-82.0631,2.08,6.03,1111122 
SCCF RECON,ioos:station:SCCF:11:1,2016-10-01T08:00:00Z,26.4679,-82.0631,1.953,6.03,1111122 
SCCF RECON,ioos:station:SCCF:11:1,2016-10-01T09:00:00Z,26.4679,-82.0631,1.843,5.65,1111122 
SCCF RECON,ioos:station:SCCF:11:1,2016-10-01T10:00:00Z,26.4679,-82.0631,1.71,5.75,1111122 
SCCF RECON,ioos:station:SCCF:11:1,2016-10-01T11:00:00Z,26.4679,-82.0631,1.608,5.55,1111122 
SCCF RECON,ioos:station:SCCF:11:1,2016-10-01T12:00:00Z,26.4679,-82.0631,1.542,5.21,1111122 
SCCF RECON,ioos:station:SCCF:11:1,2016-10-01T13:00:00Z,26.4679,-82.0631,1.59,5.03,1111122 
SCCF RECON,ioos:station:SCCF:11:1,2016-10-01T14:00:00Z,26.4679,-82.0631,1.71,5.61,1111122 
SCCF RECON,ioos:station:SCCF:11:1,2016-10-01T15:00:00Z,26.4679,-82.0631,1.877,5.9,1111122 
SCCF RECON,ioos:station:SCCF:11:1,2016-10-01T16:00:00Z,26.4679,-82.0631,2.011,5.91,1111122 
SCCF RECON,ioos:station:SCCF:11:1,2016-10-01T17:00:00Z,26.4679,-82.0631,2.099,5.17,1111122 
SCCF RECON,ioos:station:SCCF:11:1,2016-10-01T18:00:00Z,26.4679,-82.0631,2.131,5.21,1111122 
SCCF RECON,ioos:station:SCCF:11:1,2016-10-01T19:00:00Z,26.4679,-82.0631,2.12,5.28,1111122 
SCCF RECON,ioos:station:SCCF:11:1,2016-10-01T20:00:00Z,26.4679,-82.0631,2.031,6.27,1111122 
SCCF RECON,ioos:station:SCCF:11:1,2016-10-01T21:00:00Z,26.4679,-82.0631,1.89,8.19,1111122 
SCCF RECON,ioos:station:SCCF:11:1,2016-10-01T22:00:00Z,26.4679,-82.0631,1.781,8.45,1111122 
SCCF RECON,ioos:station:SCCF:11:1,2016-10-01T23:00:00Z,26.4679,-82.0631,1.68,8.71,1111122 
SCCF RECON,ioos:station:SCCF:11:1,2016-10-02T00:00:00Z,26.4679,-82.0631,1.64,8.32,1111122 
SCCF RECON,ioos:station:SCCF:11:1,2016-10-02T01:00:00Z,26.4679,-82.0631,1.64,7.2,1111122 
SCCF RECON,ioos:station:SCCF:11:1,2016-10-02T02:00:00Z,26.4679,-82.0631,1.73,7.88,1111122 
SCCF RECON,ioos:station:SCCF:11:1,2016-10-02T03:00:00Z,26.4679,-82.0631,1.93,6.79,1111122 
SCCF RECON,ioos:station:SCCF:11:1,2016-10-02T04:00:00Z,26.4679,-82.0631,2.05,6.3,1111122 
SCCF RECON,ioos:station:SCCF:11:1,2016-10-02T05:00:00Z,26.4679,-82.0631,2.121,6.15,1111122 
SCCF RECON,ioos:station:SCCF:11:1,2016-10-02T06:00:00Z,26.4679,-82.0631,2.15,5.75,1111122 
SCCF RECON,ioos:station:SCCF:11:1,2016-10-02T07:00:00Z,26.4679,-82.0631,2.08,5.91,1111122 
SCCF RECON,ioos:station:SCCF:11:1,2016-10-02T08:00:00Z,26.4679,-82.0631,1.963,6.2,1111122 
SCCF RECON,ioos:station:SCCF:11:1,2016-10-02T09:00:00Z,26.4679,-82.0631,1.81,6.11,1111122 
SCCF RECON,ioos:station:SCCF:11:1,2016-10-02T10:00:00Z,26.4679,-82.0631,1.7,5.88,1111122 
SCCF RECON,ioos:station:SCCF:11:1,2016-10-02T11:00:00Z,26.4679,-82.0631,1.61,5.81,1111122 
SCCF RECON,ioos:station:SCCF:11:1,2016-10-02T12:00:00Z,26.4679,-82.0631,1.528,5.66,1111122 
SCCF RECON,ioos:station:SCCF:11:1,2016-10-02T13:00:00Z,26.4679,-82.0631,1.468,5.5,1111122 
SCCF RECON,ioos:station:SCCF:11:1,2016-10-02T14:00:00Z,26.4679,-82.0631,1.539,5.05,1111122 
SCCF RECON,ioos:station:SCCF:11:1,2016-10-02T15:00:00Z,26.4679,-82.0631,1.727,6.46,1111122 
SCCF RECON,ioos:station:SCCF:11:1,2016-10-02T16:00:00Z,26.4679,-82.0631,1.896,6.18,1111122 
SCCF RECON,ioos:station:SCCF:11:1,2016-10-02T17:00:00Z,26.4679,-82.0631,2.021,5.92,1111122 
SCCF RECON,ioos:station:SCCF:11:1,2016-10-02T18:00:00Z,26.4679,-82.0631,2.087,4.94,1111122 
SCCF RECON,ioos:station:SCCF:11:1,2016-10-02T19:00:00Z,26.4679,-82.0631,2.102,5.42,1111122 
SCCF RECON,ioos:station:SCCF:11:1,2016-10-02T20:00:00Z,26.4679,-82.0631,2.073,5.72,1111122 
SCCF RECON,ioos:station:SCCF:11:1,2016-10-02T21:00:00Z,26.4679,-82.0631,1.962,7.63,1111122 
SCCF RECON,ioos:station:SCCF:11:1,2016-10-02T22:00:00Z,26.4679,-82.0631,1.893,6.73,1111122 
SCCF RECON,ioos:station:SCCF:11:1,2016-10-02T23:00:00Z,26.4679,-82.0631,1.72,7.56,1111122 
SCCF RECON,ioos:station:SCCF:11:1,2016-10-03T00:00:00Z,26.4679,-82.0631,1.65,7.27,1111122 
SCCF RECON,ioos:station:SCCF:11:1,2016-10-03T01:00:00Z,26.4679,-82.0631,1.598,7.06,1111122 
SCCF RECON,ioos:station:SCCF:11:1,2016-10-03T02:00:00Z,26.4679,-82.0631,1.601,6.36,1111122 
SCCF RECON,ioos:station:SCCF:11:1,2016-10-03T03:00:00Z,26.4679,-82.0631,1.74,6.48,1111122 
SCCF RECON,ioos:station:SCCF:11:1,2016-10-03T04:00:00Z,26.4679,-82.0631,1.919,6.53,1111122 
SCCF RECON,ioos:station:SCCF:11:1,2016-10-03T05:00:00Z,26.4679,-82.0631,2.0,6.09,1111122 
SCCF RECON,ioos:station:SCCF:11:1,2016-10-03T06:00:00Z,26.4679,-82.0631,2.088,6.07,1111122 
SCCF RECON,ioos:station:SCCF:11:1,2016-10-03T07:00:00Z,26.4679,-82.0631,2.089,6.01,1111122 
SCCF RECON,ioos:station:SCCF:11:1,2016-10-03T08:00:00Z,26.4679,-82.0631,2.02,5.83,1111122 
SCCF RECON,ioos:station:SCCF:11:1,2016-10-03T09:00:00Z,26.4679,-82.0631,1.909,5.75,1111122 
SCCF RECON,ioos:station:SCCF:11:1,2016-10-03T10:00:00Z,26.4679,-82.0631,1.741,5.61,1111122 
SCCF RECON,ioos:station:SCCF:11:1,2016-10-03T11:00:00Z,26.4679,-82.0631,1.625,5.3,1111122 
SCCF RECON,ioos:station:SCCF:11:1,2016-10-03T12:00:00Z,26.4679,-82.0631,1.55,5.46,1111122 
SCCF RECON,ioos:station:SCCF:11:1,2016-10-03T13:00:00Z,26.4679,-82.0631,1.452,5.14,1111122 
SCCF RECON,ioos:station:SCCF:11:1,2016-10-03T14:00:00Z,26.4679,-82.0631,1.472,4.91,1111122 
SCCF RECON,ioos:station:SCCF:11:1,2016-10-03T15:00:00Z,26.4679,-82.0631,1.613,5.72,1111122 
SCCF RECON,ioos:station:SCCF:11:1,2016-10-03T16:00:00Z,26.4679,-82.0631,1.78,6.21,1111122 
SCCF RECON,ioos:station:SCCF:11:1,2016-10-03T17:00:00Z,26.4679,-82.0631,1.916,6.47,1111122 
SCCF RECON,ioos:station:SCCF:11:1,2016-10-03T18:00:00Z,26.4679,-82.0631,2.019,6.28,1111122 
SCCF RECON,ioos:station:SCCF:11:1,2016-10-03T19:00:00Z,26.4679,-82.0631,2.078,5.08,1111122 
SCCF RECON,ioos:station:SCCF:11:1,2016-10-03T20:00:00Z,26.4679,-82.0631,2.09,5.69,1111122 
SCCF RECON,ioos:station:SCCF:11:1,2016-10-03T21:00:00Z,26.4679,-82.0631,2.049,5.59,1111122 
SCCF RECON,ioos:station:SCCF:11:1,2016-10-03T22:00:00Z,26.4679,-82.0631,1.964,7.41,1111122 
SCCF RECON,ioos:station:SCCF:11:1,2016-10-03T23:00:00Z,26.4679,-82.0631,1.898,6.69,1111122 
SCCF RECON,ioos:station:SCCF:11:1,2016-10-04T00:00:00Z,26.4679,-82.0631,1.815,6.9,1111122 
SCCF RECON,ioos:station:SCCF:11:1,2016-10-04T01:00:00Z,26.4679,-82.0631,1.68,6.68,1111122 
SCCF RECON,ioos:station:SCCF:11:1,2016-10-04T02:00:00Z,26.4679,-82.0631,1.627,6.39,1111122 
SCCF RECON,ioos:station:SCCF:11:1,2016-10-04T03:00:00Z,26.4679,-82.0631,1.71,6.06,1111122 
SCCF RECON,ioos:station:SCCF:11:1,2016-10-04T04:00:00Z,26.4679,-82.0631,1.83,6.02,1111122 
SCCF RECON,ioos:station:SCCF:11:1,2016-10-04T05:00:00Z,26.4679,-82.0631,1.985,6.22,1111122 
SCCF RECON,ioos:station:SCCF:11:1,2016-10-04T06:00:00Z,26.4679,-82.0631,2.1,5.94,1111122 
SCCF RECON,ioos:station:SCCF:11:1,2016-10-04T07:00:00Z,26.4679,-82.0631,2.117,5.93,1111122 
SCCF RECON,ioos:station:SCCF:11:1,2016-10-04T08:00:00Z,26.4679,-82.0631,2.05,5.7,1111122 
SCCF RECON,ioos:station:SCCF:11:1,2016-10-04T09:00:00Z,26.4679,-82.0631,2.0,5.48,1111122 
SCCF RECON,ioos:station:SCCF:11:1,2016-10-04T10:00:00Z,26.4679,-82.0631,1.86,5.62,1111122 
SCCF RECON,ioos:station:SCCF:11:1,2016-10-04T11:00:00Z,26.4679,-82.0631,1.723,5.25,1111122 
SCCF RECON,ioos:station:SCCF:11:1,2016-10-04T12:00:00Z,26.4679,-82.0631,1.61,5.09,1111122 
SCCF RECON,ioos:station:SCCF:11:1,2016-10-04T13:00:00Z,26.4679,-82.0631,1.52,4.9,1111122 
SCCF RECON,ioos:station:SCCF:11:1,2016-10-04T14:00:00Z,26.4679,-82.0631,1.488,5.19,1111122 
SCCF RECON,ioos:station:SCCF:11:1,2016-10-04T15:00:00Z,26.4679,-82.0631,1.574,4.75,1111122 
SCCF RECON,ioos:station:SCCF:11:1,2016-10-04T16:00:00Z,26.4679,-82.0631,1.731,5.78,1111122 
SCCF RECON,ioos:station:SCCF:11:1,2016-10-04T17:00:00Z,26.4679,-82.0631,1.877,6.14,1111122 
SCCF RECON,ioos:station:SCCF:11:1,2016-10-04T18:00:00Z,26.4679,-82.0631,1.97,6.45,1111122 
SCCF RECON,ioos:station:SCCF:11:1,2016-10-04T19:00:00Z,26.4679,-82.0631,2.04,5.44,1111122 
SCCF RECON,ioos:station:SCCF:11:1,2016-10-04T20:00:00Z,26.4679,-82.0631,2.079,5.29,1111122 
SCCF RECON,ioos:station:SCCF:11:1,2016-10-04T21:00:00Z,26.4679,-82.0631,2.05,5.2,1111122 
SCCF RECON,ioos:station:SCCF:11:1,2016-10-04T22:00:00Z,26.4679,-82.0631,2.009,6.21,1111122 
SCCF RECON,ioos:station:SCCF:11:1,2016-10-04T23:00:00Z,26.4679,-82.0631,1.979,6.64,1111122 
SCCF RECON,ioos:station:SCCF:11:1,2016-10-05T00:00:00Z,26.4679,-82.0631,1.92,6.84,1111122 
SCCF RECON,ioos:station:SCCF:11:1,2016-10-05T01:00:00Z,26.4679,-82.0631,1.858,6.89,1111122 
SCCF RECON,ioos:station:SCCF:11:1,2016-10-05T02:00:00Z,26.4679,-82.0631,1.82,6.99,1111122 
SCCF RECON,ioos:station:SCCF:11:1,2016-10-05T03:00:00Z,26.4679,-82.0631,1.82,6.69,1111122 
SCCF RECON,ioos:station:SCCF:11:1,2016-10-05T04:00:00Z,26.4679,-82.0631,1.89,6.49,1111122 
SCCF RECON,ioos:station:SCCF:11:1,2016-10-05T05:00:00Z,26.4679,-82.0631,1.988,6.35,1111122 
SCCF RECON,ioos:station:SCCF:11:1,2016-10-05T06:00:00Z,26.4679,-82.0631,2.092,6.13,1111122 
SCCF RECON,ioos:station:SCCF:11:1,2016-10-05T07:00:00Z,26.4679,-82.0631,2.161,5.61,1111122 
SCCF RECON,ioos:station:SCCF:11:1,2016-10-05T08:00:00Z,26.4679,-82.0631,2.14,5.28,1111122 
SCCF RECON,ioos:station:SCCF:11:1,2016-10-05T09:00:00Z,26.4679,-82.0631,2.086,5.87,1111122 
SCCF RECON,ioos:station:SCCF:11:1,2016-10-05T10:00:00Z,26.4679,-82.0631,1.94,5.89,1111122 
SCCF RECON,ioos:station:SCCF:11:1,2016-10-05T11:00:00Z,26.4679,-82.0631,1.8,5.5,1111122 
SCCF RECON,ioos:station:SCCF:11:1,2016-10-05T12:00:00Z,26.4679,-82.0631,1.7,5.24,1111122 
SCCF RECON,ioos:station:SCCF:11:1,2016-10-05T13:00:00Z,26.4679,-82.0631,1.58,5.2,1111122 
SCCF RECON,ioos:station:SCCF:11:1,2016-10-05T14:00:00Z,26.4679,-82.0631,1.494,5.12,1111122 
SCCF RECON,ioos:station:SCCF:11:1,2016-10-05T15:00:00Z,26.4679,-82.0631,1.48,5.88,1111122 
SCCF RECON,ioos:station:SCCF:11:1,2016-10-05T16:00:00Z,26.4679,-82.0631,1.576,5.41,1111122 
SCCF RECON,ioos:station:SCCF:11:1,2016-10-05T17:00:00Z,26.4679,-82.0631,1.708,6.89,1111122 
SCCF RECON,ioos:station:SCCF:11:1,2016-10-05T18:00:00Z,26.4679,-82.0631,1.81,6.43,1111122 
SCCF RECON,ioos:station:SCCF:11:1,2016-10-05T19:00:00Z,26.4679,-82.0631,1.896,6.23,1111122 
SCCF RECON,ioos:station:SCCF:11:1,2016-10-05T20:00:00Z,26.4679,-82.0631,1.968,6.38,1111122 
SCCF RECON,ioos:station:SCCF:11:1,2016-10-05T21:00:00Z,26.4679,-82.0631,2.0,5.61,1111122 
SCCF RECON,ioos:station:SCCF:11:1,2016-10-05T22:00:00Z,26.4679,-82.0631,1.968,6.57,1111122 
SCCF RECON,ioos:station:SCCF:11:1,2016-10-05T23:00:00Z,26.4679,-82.0631,1.929,6.63,1111122 
SCCF RECON,ioos:station:SCCF:11:1,2016-10-06T00:00:00Z,26.4679,-82.0631,1.87,6.95,1111122 
SCCF RECON,ioos:station:SCCF:11:1,2016-10-06T01:00:00Z,26.4679,-82.0631,1.804,7.14,1111122 
SCCF RECON,ioos:station:SCCF:11:1,2016-10-06T02:00:00Z,26.4679,-82.0631,1.77,7.21,1111122 
SCCF RECON,ioos:station:SCCF:11:1,2016-10-06T03:00:00Z,26.4679,-82.0631,1.78,6.13,1111122 
SCCF RECON,ioos:station:SCCF:11:1,2016-10-06T04:00:00Z,26.4679,-82.0631,1.839,6.11,1111122 
SCCF RECON,ioos:station:SCCF:11:1,2016-10-06T05:00:00Z,26.4679,-82.0631,1.9,6.27,1111122 
SCCF RECON,ioos:station:SCCF:11:1,2016-10-06T06:00:00Z,26.4679,-82.0631,1.98,5.92,1111122 
SCCF RECON,ioos:station:SCCF:11:1,2016-10-06T07:00:00Z,26.4679,-82.0631,2.06,6.14,1111122 
SCCF RECON,ioos:station:SCCF:11:1,2016-10-06T08:00:00Z,26.4679,-82.0631,2.115,6.11,1111122 
SCCF RECON,ioos:station:SCCF:11:1,2016-10-06T09:00:00Z,26.4679,-82.0631,2.091,6.1,1111122 
SCCF RECON,ioos:station:SCCF:11:1,2016-10-06T10:00:00Z,26.4679,-82.0631,1.99,5.86,1111122 
SCCF RECON,ioos:station:SCCF:11:1,2016-10-06T11:00:00Z,26.4679,-82.0631,1.86,5.72,1111122 
SCCF RECON,ioos:station:SCCF:11:1,2016-10-06T12:00:00Z,26.4679,-82.0631,1.742,5.62,1111122 
SCCF RECON,ioos:station:SCCF:11:1,2016-10-06T13:00:00Z,26.4679,-82.0631,1.645,5.53,1111122 
SCCF RECON,ioos:station:SCCF:11:1,2016-10-06T14:00:00Z,26.4679,-82.0631,1.559,5.46,1111122 
SCCF RECON,ioos:station:SCCF:11:1,2016-10-06T15:00:00Z,26.4679,-82.0631,1.484,5.39,1111122 
SCCF RECON,ioos:station:SCCF:11:1,2016-10-06T16:00:00Z,26.4679,-82.0631,1.481,6.32,1111122 
SCCF RECON,ioos:station:SCCF:11:1,2016-10-06T17:00:00Z,26.4679,-82.0631,1.517,6.6,1111122 
SCCF RECON,ioos:station:SCCF:11:1,2016-10-06T18:00:00Z,26.4679,-82.0631,1.59,6.95,1111122 
SCCF RECON,ioos:station:SCCF:11:1,2016-10-06T19:00:00Z,26.4679,-82.0631,1.708,7.16,1111122 
SCCF RECON,ioos:station:SCCF:11:1,2016-10-06T20:00:00Z,26.4679,-82.0631,1.822,7.0,1111122 
SCCF RECON,ioos:station:SCCF:11:1,2016-10-06T21:00:00Z,26.4679,-82.0631,1.89,6.97,1111122 
SCCF RECON,ioos:station:SCCF:11:1,2016-10-06T22:00:00Z,26.4679,-82.0631,1.914,6.84,1111122 
SCCF RECON,ioos:station:SCCF:11:1,2016-10-06T23:00:00Z,26.4679,-82.0631,1.855,7.3,1111122 
SCCF RECON,ioos:station:SCCF:11:1,2016-10-07T00:00:00Z,26.4679,-82.0631,1.778,7.09,1111122 
SCCF RECON,ioos:station:SCCF:11:1,2016-10-07T01:00:00Z,26.4679,-82.0631,1.71,7.05,1111122 
SCCF RECON,ioos:station:SCCF:11:1,2016-10-07T02:00:00Z,26.4679,-82.0631,1.684,6.91,1111122 
SCCF RECON,ioos:station:SCCF:11:1,2016-10-07T03:00:00Z,26.4679,-82.0631,1.667,6.81,1111122 
SCCF RECON,ioos:station:SCCF:11:1,2016-10-07T04:00:00Z,26.4679,-82.0631,1.727,6.48,1111122 
SCCF RECON,ioos:station:SCCF:11:1,2016-10-07T05:00:00Z,26.4679,-82.0631,1.757,6.53,1111122 
SCCF RECON,ioos:station:SCCF:11:1,2016-10-07T06:00:00Z,26.4679,-82.0631,1.862,5.99,1111122 
SCCF RECON,ioos:station:SCCF:11:1,2016-10-07T07:00:00Z,26.4679,-82.0631,1.958,5.77,1111122 
SCCF RECON,ioos:station:SCCF:11:1,2016-10-07T08:00:00Z,26.4679,-82.0631,2.038,5.86,1111122 
SCCF RECON,ioos:station:SCCF:11:1,2016-10-07T09:00:00Z,26.4679,-82.0631,2.041,6.01,1111122 
SCCF RECON,ioos:station:SCCF:11:1,2016-10-07T10:00:00Z,26.4679,-82.0631,2.016,6.13,1111122 
SCCF RECON,ioos:station:SCCF:11:1,2016-10-07T11:00:00Z,26.4679,-82.0631,1.937,6.16,1111122 
SCCF RECON,ioos:station:SCCF:11:1,2016-10-07T12:00:00Z,26.4679,-82.0631,1.833,6.08,1111122 
SCCF RECON,ioos:station:SCCF:11:1,2016-10-07T13:00:00Z,26.4679,-82.0631,1.74,5.88,1111122 
SCCF RECON,ioos:station:SCCF:11:1,2016-10-07T14:00:00Z,26.4679,-82.0631,1.68,6.13,1111122 
SCCF RECON,ioos:station:SCCF:11:1,2016-10-07T15:00:00Z,26.4679,-82.0631,1.625,6.33,1111122 
SCCF RECON,ioos:station:SCCF:11:1,2016-10-07T16:00:00Z,26.4679,-82.0631,1.591,6.5,1111122 
SCCF RECON,ioos:station:SCCF:11:1,2016-10-07T17:00:00Z,26.4679,-82.0631,1.603,6.75,1111122 
SCCF RECON,ioos:station:SCCF:11:1,2016-10-07T18:00:00Z,26.4679,-82.0631,1.605,6.99,1111122 
SCCF RECON,ioos:station:SCCF:11:1,2016-10-07T19:00:00Z,26.4679,-82.0631,1.661,6.73,1111122 
SCCF RECON,ioos:station:SCCF:11:1,2016-10-07T20:00:00Z,26.4679,-82.0631,1.744,6.56,1111122 
SCCF RECON,ioos:station:SCCF:11:1,2016-10-07T21:00:00Z,26.4679,-82.0631,1.83,7.43,1111122 
SCCF RECON,ioos:station:SCCF:11:1,2016-10-07T22:00:00Z,26.4679,-82.0631,1.926,7.23,1111122 
SCCF RECON,ioos:station:SCCF:11:1,2016-10-07T23:00:00Z,26.4679,-82.0631,1.948,7.26,1111122 
SCCF RECON,ioos:station:SCCF:11:1,2016-10-08T00:00:00Z,26.4679,-82.0631,1.961,7.24,1111122 
SCCF RECON,ioos:station:SCCF:11:1,2016-10-08T01:00:00Z,26.4679,-82.0631,1.929,7.26,1111122 
SCCF RECON,ioos:station:SCCF:11:1,2016-10-08T02:00:00Z,26.4679,-82.0631,1.903,7.11,1111122 
SCCF RECON,ioos:station:SCCF:11:1,2016-10-08T03:00:00Z,26.4679,-82.0631,1.88,6.47,1111122 
SCCF RECON,ioos:station:SCCF:11:1,2016-10-08T04:00:00Z,26.4679,-82.0631,1.891,5.34,1111122 
SCCF RECON,ioos:station:SCCF:11:1,2016-10-08T05:00:00Z,26.4679,-82.0631,1.93,6.39,1111122 
SCCF RECON,ioos:station:SCCF:11:1,2016-10-08T06:00:00Z,26.4679,-82.0631,1.961,6.28,1111122 
SCCF RECON,ioos:station:SCCF:11:1,2016-10-08T07:00:00Z,26.4679,-82.0631,2.01,6.38,1111122 
SCCF RECON,ioos:station:SCCF:11:1,2016-10-08T08:00:00Z,26.4679,-82.0631,2.077,6.35,1111122 
SCCF RECON,ioos:station:SCCF:11:1,2016-10-08T09:00:00Z,26.4679,-82.0631,2.122,5.59,1111122 
SCCF RECON,ioos:station:SCCF:11:1,2016-10-08T10:00:00Z,26.4679,-82.0631,2.13,5.74,1111122 
SCCF RECON,ioos:station:SCCF:11:1,2016-10-08T11:00:00Z,26.4679,-82.0631,2.079,5.73,1111122 
SCCF RECON,ioos:station:SCCF:11:1,2016-10-08T12:00:00Z,26.4679,-82.0631,2.01,5.66,1111122 
SCCF RECON,ioos:station:SCCF:11:1,2016-10-08T13:00:00Z,26.4679,-82.0631,1.939,5.67,1111122 
SCCF RECON,ioos:station:SCCF:11:1,2016-10-08T14:00:00Z,26.4679,-82.0631,1.839,6.71,1111122 
SCCF RECON,ioos:station:SCCF:11:1,2016-10-08T15:00:00Z,26.4679,-82.0631,1.751,6.89,1111122 
SCCF RECON,ioos:station:SCCF:11:1,2016-10-08T16:00:00Z,26.4679,-82.0631,1.678,6.55,1111122 
SCCF RECON,ioos:station:SCCF:11:1,2016-10-08T17:00:00Z,26.4679,-82.0631,1.631,7.29,1111122 
SCCF RECON,ioos:station:SCCF:11:1,2016-10-08T18:00:00Z,26.4679,-82.0631,1.61,7.79,1111122 
SCCF RECON,ioos:station:SCCF:11:1,2016-10-08T19:00:00Z,26.4679,-82.0631,1.638,7.13,1111122 
SCCF RECON,ioos:station:SCCF:11:1,2016-10-08T20:00:00Z,26.4679,-82.0631,1.737,7.61,1111122 
SCCF RECON,ioos:station:SCCF:11:1,2016-10-08T21:00:00Z,26.4679,-82.0631,1.844,7.79,1111122 
SCCF RECON,ioos:station:SCCF:11:1,2016-10-08T22:00:00Z,26.4679,-82.0631,1.911,7.38,1111122 
SCCF RECON,ioos:station:SCCF:11:1,2016-10-08T23:00:00Z,26.4679,-82.0631,1.952,7.62,1111122 
SCCF RECON,ioos:station:SCCF:11:1,2016-10-09T00:00:00Z,26.4679,-82.0631,1.98,6.76,1111122 
SCCF RECON,ioos:station:SCCF:11:1,2016-10-09T01:00:00Z,26.4679,-82.0631,2.003,7.21,1111122 
SCCF RECON,ioos:station:SCCF:11:1,2016-10-09T02:00:00Z,26.4679,-82.0631,2.023,7.18,1111122 
SCCF RECON,ioos:station:SCCF:11:1,2016-10-09T03:00:00Z,26.4679,-82.0631,2.028,6.85,1111122 
SCCF RECON,ioos:station:SCCF:11:1,2016-10-09T04:00:00Z,26.4679,-82.0631,1.99,7.05,1111122 
SCCF RECON,ioos:station:SCCF:11:1,2016-10-09T05:00:00Z,26.4679,-82.0631,1.96,6.85,1111122 
SCCF RECON,ioos:station:SCCF:11:1,2016-10-09T06:00:00Z,26.4679,-82.0631,1.95,6.26,1111122 
SCCF RECON,ioos:station:SCCF:11:1,2016-10-09T07:00:00Z,26.4679,-82.0631,1.97,5.58,1111122 
SCCF RECON,ioos:station:SCCF:11:1,2016-10-09T08:00:00Z,26.4679,-82.0631,1.995,4.33,1111122 
SCCF RECON,ioos:station:SCCF:11:1,2016-10-09T09:00:00Z,26.4679,-82.0631,2.06,5.57,1111122 
SCCF RECON,ioos:station:SCCF:11:1,2016-10-09T10:00:00Z,26.4679,-82.0631,2.108,5.09,1111122 
SCCF RECON,ioos:station:SCCF:11:1,2016-10-09T11:00:00Z,26.4679,-82.0631,2.11,5.96,1111122 
SCCF RECON,ioos:station:SCCF:11:1,2016-10-09T12:00:00Z,26.4679,-82.0631,2.06,5.98,1111122 
SCCF RECON,ioos:station:SCCF:11:1,2016-10-09T13:00:00Z,26.4679,-82.0631,1.967,6.12,1111122 
SCCF RECON,ioos:station:SCCF:11:1,2016-10-09T14:00:00Z,26.4679,-82.0631,1.88,6.27,1111122 
SCCF RECON,ioos:station:SCCF:11:1,2016-10-09T15:00:00Z,26.4679,-82.0631,1.78,6.23,1111122 
SCCF RECON,ioos:station:SCCF:11:1,2016-10-09T16:00:00Z,26.4679,-82.0631,1.686,6.22,1111122 
SCCF RECON,ioos:station:SCCF:11:1,2016-10-09T17:00:00Z,26.4679,-82.0631,1.582,6.55,1111122 
SCCF RECON,ioos:station:SCCF:11:1,2016-10-09T18:00:00Z,26.4679,-82.0631,1.52,6.69,1111122 
SCCF RECON,ioos:station:SCCF:11:1,2016-10-09T19:00:00Z,26.4679,-82.0631,1.548,6.34,1111122 
SCCF RECON,ioos:station:SCCF:11:1,2016-10-09T20:00:00Z,26.4679,-82.0631,1.589,6.19,1111122 
SCCF RECON,ioos:station:SCCF:11:1,2016-10-09T21:00:00Z,26.4679,-82.0631,1.674,6.51,1111122 
SCCF RECON,ioos:station:SCCF:11:1,2016-10-09T22:00:00Z,26.4679,-82.0631,1.77,7.54,1111122 
SCCF RECON,ioos:station:SCCF:11:1,2016-10-09T23:00:00Z,26.4679,-82.0631,1.858,7.22,1111122 
SCCF RECON,ioos:station:SCCF:11:1,2016-10-10T00:00:00Z,26.4679,-82.0631,1.94,6.58,1111122 
SCCF RECON,ioos:station:SCCF:11:1,2016-10-10T01:00:00Z,26.4679,-82.0631,2.0,5.9,1111122 
SCCF RECON,ioos:station:SCCF:11:1,2016-10-10T02:00:00Z,26.4679,-82.0631,2.03,5.5,1111122 
SCCF RECON,ioos:station:SCCF:11:1,2016-10-10T03:00:00Z,26.4679,-82.0631,2.01,6.15,1111122 
SCCF RECON,ioos:station:SCCF:11:1,2016-10-10T04:00:00Z,26.4679,-82.0631,1.95,5.85,1111122 
SCCF RECON,ioos:station:SCCF:11:1,2016-10-10T05:00:00Z,26.4679,-82.0631,1.889,5.94,1111122 
SCCF RECON,ioos:station:SCCF:11:1,2016-10-10T06:00:00Z,26.4679,-82.0631,1.828,5.96,1111122 
SCCF RECON,ioos:station:SCCF:11:1,2016-10-10T07:00:00Z,26.4679,-82.0631,1.779,5.9,1111122 
SCCF RECON,ioos:station:SCCF:11:1,2016-10-10T08:00:00Z,26.4679,-82.0631,1.76,5.27,1111122 
SCCF RECON,ioos:station:SCCF:11:1,2016-10-10T09:00:00Z,26.4679,-82.0631,1.829,5.39,1111122 
SCCF RECON,ioos:station:SCCF:11:1,2016-10-10T10:00:00Z,26.4679,-82.0631,1.88,5.62,1111122 
SCCF RECON,ioos:station:SCCF:11:1,2016-10-10T11:00:00Z,26.4679,-82.0631,1.941,5.87,1111122 
SCCF RECON,ioos:station:SCCF:11:1,2016-10-10T12:00:00Z,26.4679,-82.0631,2.011,5.69,1111122 
SCCF RECON,ioos:station:SCCF:11:1,2016-10-10T13:00:00Z,26.4679,-82.0631,2.05,5.42,1111122 
SCCF RECON,ioos:station:SCCF:11:1,2016-10-10T14:00:00Z,26.4679,-82.0631,2.034,5.95,1111122 
SCCF RECON,ioos:station:SCCF:11:1,2016-10-10T15:00:00Z,26.4679,-82.0631,1.96,6.15,1111122 
SCCF RECON,ioos:station:SCCF:11:1,2016-10-10T16:00:00Z,26.4679,-82.0631,1.831,6.24,1111122 
SCCF RECON,ioos:station:SCCF:11:1,2016-10-10T17:00:00Z,26.4679,-82.0631,1.737,5.8,1111122 
SCCF RECON,ioos:station:SCCF:11:1,2016-10-10T18:00:00Z,26.4679,-82.0631,1.689,6.55,1111122 
SCCF RECON,ioos:station:SCCF:11:1,2016-10-10T19:00:00Z,26.4679,-82.0631,1.631,6.73,1111122 
SCCF RECON,ioos:station:SCCF:11:1,2016-10-10T20:00:00Z,26.4679,-82.0631,1.6,6.98,1111122 
SCCF RECON,ioos:station:SCCF:11:1,2016-10-10T21:00:00Z,26.4679,-82.0631,1.66,6.87,1111122 
SCCF RECON,ioos:station:SCCF:11:1,2016-10-10T22:00:00Z,26.4679,-82.0631,1.743,7.34,1111122 
SCCF RECON,ioos:station:SCCF:11:1,2016-10-10T23:00:00Z,26.4679,-82.0631,1.832,7.31,1111122 
SCCF RECON,ioos:station:SCCF:11:1,2016-10-11T00:00:00Z,26.4679,-82.0631,1.926,7.17,1111122 
SCCF RECON,ioos:station:SCCF:11:1,2016-10-11T01:00:00Z,26.4679,-82.0631,2.01,6.91,1111122 
SCCF RECON,ioos:station:SCCF:11:1,2016-10-11T02:00:00Z,26.4679,-82.0631,2.059,6.54,1111122 
SCCF RECON,ioos:station:SCCF:11:1,2016-10-11T03:00:00Z,26.4679,-82.0631,2.04,6.2,1111122 
SCCF RECON,ioos:station:SCCF:11:1,2016-10-11T04:00:00Z,26.4679,-82.0631,2.011,6.27,1111122 
SCCF RECON,ioos:station:SCCF:11:1,2016-10-11T05:00:00Z,26.4679,-82.0631,1.985,6.05,1111122 
SCCF RECON,ioos:station:SCCF:11:1,2016-10-11T06:00:00Z,26.4679,-82.0631,1.939,6.25,1111122 
SCCF RECON,ioos:station:SCCF:11:1,2016-10-11T07:00:00Z,26.4679,-82.0631,1.909,6.3,1111122 
SCCF RECON,ioos:station:SCCF:11:1,2016-10-11T08:00:00Z,26.4679,-82.0631,1.877,6.32,1111122 
SCCF RECON,ioos:station:SCCF:11:1,2016-10-11T09:00:00Z,26.4679,-82.0631,1.876,6.21,1111122 
SCCF RECON,ioos:station:SCCF:11:1,2016-10-11T10:00:00Z,26.4679,-82.0631,1.938,6.27,1111122 
SCCF RECON,ioos:station:SCCF:11:1,2016-10-11T11:00:00Z,26.4679,-82.0631,2.04,6.3,1111122 
SCCF RECON,ioos:station:SCCF:11:1,2016-10-11T12:00:00Z,26.4679,-82.0631,2.13,5.77,1111122 
SCCF RECON,ioos:station:SCCF:11:1,2016-10-11T13:00:00Z,26.4679,-82.0631,2.16,5.78,1111122 
SCCF RECON,ioos:station:SCCF:11:1,2016-10-11T14:00:00Z,26.4679,-82.0631,2.152,5.83,1111122 
SCCF RECON,ioos:station:SCCF:11:1,2016-10-11T15:00:00Z,26.4679,-82.0631,2.084,6.42,1111122 
SCCF RECON,ioos:station:SCCF:11:1,2016-10-11T16:00:00Z,26.4679,-82.0631,1.98,6.26,1111122 
SCCF RECON,ioos:station:SCCF:11:1,2016-10-11T17:00:00Z,26.4679,-82.0631,1.853,6.22,1111122 
SCCF RECON,ioos:station:SCCF:11:1,2016-10-11T18:00:00Z,26.4679,-82.0631,1.721,6.3,1111122 
SCCF RECON,ioos:station:SCCF:11:1,2016-10-11T19:00:00Z,26.4679,-82.0631,1.616,6.5,1111122 
SCCF RECON,ioos:station:SCCF:11:1,2016-10-11T20:00:00Z,26.4679,-82.0631,1.534,6.59,1111122 